Temperature
21 19 18 18 17 17 16 15 15 14 14 13 13 13 13 12 12 12 12 12 12 12 12 12 12 13 13 13 13 13 14 14 14 14 15 15 16 16 16 16 16 16 17
21 19 18 18 17 17 16 15 15 14 13 13 13 12 12 12 12 12 12 12 12 12 12 12 12 12 12 13 13 13 13 14 14 14 15 16 16 15 16 16 16 16 16
21 20 18 18 17 16 16 15 15 14 13 13 13 12 12 12 12 12 12 11 12 12 12 12 12 12 12 12 12 13 13 13 14 14 14 15 16 16 16 16 16 16 16
21 20 19 18 17 16 16 15 15 14 13 13 13 13 12 13 12 12 12 12 11 12 12 12 12 12 12 12 12 12 12 13 13 14 14 14 14 15 15 15 16 16 16
20 20 19 18 17 16 16 15 15 14 13 13 13 12 12 12 12 12 12 12 12 11 11 12 12 12 12 12 12 12 12 12 13 13 13 14 14 14 15 15 15 16 16
20 19 18 18 17 16 16 15 15 14 14 13 13 12 12 12 12 12 12 12 12 12 11 11 11 12 12 12 12 12 12 12 12 13 13 13 14 14 14 15 15 15 15
20 19 18 18 17 17 16 15 15 14 14 13 13 13 12 12 12 12 12 12 12 12 11 11 11 11 11 11 11 12 12 12 12 12 13 13 13 13 14 14 15 15 15
20 19 19 18 18 17 16 16 15 14 14 14 13 13 13 12 12 12 12 12 12 12 11 11 11 11 11 11 11 11 12 12 12 12 12 12 13 13 13 13 14 14 15
20 19 19 18 18 17 16 16 15 15 14 14 13 13 13 13 12 12 12 12 12 12 12 11 11 11 11 11 11 11 11 12 12 12 12 12 12 13 13 13 13 14 14
20 19 19 18 18 17 16 16 15 15 14 14 14 13 13 13 13 12 12 12 12 12 12 12 12 12 12 11 11 11 12 12 12 12 12 12 12 12 12 13 13 13 13
20 19 19 18 18 17 16 16 16 15 15 14 14 14 13 13 13 13 13 12 12 12 12 12 12 12 12 12 12 12 11 11 12 12 12 12 12 12 12 12 12 13 13
20 19 19 18 18 17 17 16 16 15 15 15 14 14 14 14 13 13 13 13 12 12 12 12 12 12 12 12 12 12 11 11 12 12 12 12 12 12 12 12 12 12 13
20 19 19 18 18 17 17 16 16 16 15 15 15 14 14 14 14 13 13 13 13 13 12 12 12 12 12 12 12 12 12 12 12 12 12 12 12 12 12 12 12 12 12
20 19 19 18 18 18 17 16 16 16 16 15 15 15 14 14 14 14 14 13 13 13 13 12 12 12 12 12 12 12 12 12 12 12 12 11 11 11 12 12 12 12 12
20 19 19 19 18 18 17 17 16 16 16 15 15 15 15 14 14 14 14 13 13 13 13 13 12 12 12 12 12 12 12 12 12 12 12 11 12 12 12 12 12 12 12
20 20 19 19 18 18 17 17 17 16 16 16 15 15 15 15 14 14 14 13 13 13 13 13 12 12 12 13 13 12 12 12 12 12 12 12 12 12 12 12 12 12 12
21 20 20 19 19 18 18 17 17 16 16 16 16 15 15 15 14 14 14 14 13 13 13 13 13 12 12 13 13 13 12 12 12 12 12 12 12 12 12 12 12 12 12
21 20 20 19 19 18 18 17 17 17 16 16 16 15 15 15 15 14 14 14 13 13 13 13 13 13 13 13 13 13 12 12 12 12 12 12 12 12 12 12 12 12 12
21 20 20 19 19 18 18 17 17 17 16 16 16 15 15 15 15 14 14 13 13 13 13 12 12 12 12 13 13 13 12 12 12 12 12 12 12 12 12 12 12 12 12
21 20 20 19 19 18 18 17 17 17 16 16 16 15 15 15 15 14 14 13 13 13 12 12 12 12 12 12 12 12 12 12 12 11 11 12 12 12 12 12 11 11 11
21 21 20 19 19 18 18 17 17 17 16 16 16 15 15 15 14 14 13 13 13 12 12 12 12 12 12 12 12 12 12 11 11 11 11 11 12 12 12 12 11 11 11
21 20 20 19 19 18 18 17 17 17 16 16 16 15 15 14 14 14 13 13 12 12 11 11 11 11 11 11 11 11 11 11 11 11 11 11 11 11 11 11 11 11 11
20 20 20 19 19 18 18 17 17 17 16 16 16 15 14 14 14 13 12 12 12 11 11 11 11 11 10 11 11 11 11 11 11 11 11 11 11 11 11 11 11 11 11
20 20 19 19 19 18 18 17 17 16 16 16 15 14 14 13 13 12 12 11 11 10 10 10 10 10 10 10 10 10 10 10 10 10 10 10 10 10 10 10 10 10 10
20 20 19 19 18 18 18 17 17 16 15 15 15 14 13 13 12 12 11 11 11 11 10 10 9 9 9 10 10 10 10 10 9 9 9 9 9 9 9 9 9 9 9
19 19 19 19 18 18 17 17 16 16 15 14 14 14 13 13 12 11 11 10 10 10 10 10 9 9 9 9 9 9 9 9 9 9 8 8 8 8 8 8 8 8 8
Wind_Speed
8 7 8 8 7 6 4 3 1 0 1 2 3 3 3 4 4 4 5 6 6 6 6 6 5 5 4 4 4 3 3 3 3 4 4 4 5 5 5 5 6 7 8
9 9 9 9 8 6 4 3 2 0 1 2 3 3 4 4 4 4 4 6 6 6 6 6 5 4 4 4 3 3 3 2 2 3 3 3 4 4 5 4 5 6 6
10 10 10 10 8 7 5 4 2 1 0 1 2 2 2 3 2 3 4 5 6 5 5 6 6 5 4 3 3 3 3 3 2 2 2 2 2 1 3 4 4 4 4
10 10 10 10 9 7 6 4 3 2 1 1 2 3 4 4 5 5 5 5 5 5 5 5 5 4 4 4 3 3 3 3 3 2 3 3 2 2 1 2 3 3 4
11 11 11 10 8 7 6 5 4 3 2 2 2 3 3 4 4 4 5 5 4 5 5 5 5 4 4 4 4 3 3 3 3 3 2 2 3 4 3 2 2 3 3
11 11 10 9 8 8 7 5 5 3 3 3 3 3 4 4 5 5 5 5 4 4 5 5 4 4 4 4 4 3 3 3 3 3 3 3 3 3 3 4 3 3 3
12 11 11 11 10 9 8 7 6 5 4 4 4 3 4 5 5 5 4 5 5 4 5 5 4 4 4 4 4 3 3 3 3 4 3 3 3 3 4 4 3 4 3
11 11 11 11 10 10 9 8 7 5 4 4 4 3 3 4 4 4 4 4 4 4 5 5 5 4 4 4 3 3 3 3 3 4 4 3 3 4 4 4 3 4 4
11 11 11 10 10 10 9 9 7 6 5 5 4 4 4 4 4 4 4 4 4 4 5 5 4 4 4 4 4 3 3 3 3 4 4 4 3 4 4 4 4 4 4
10 11 10 10 10 9 9 8 8 7 6 5 4 3 4 4 4 4 4 4 4 4 5 5 4 3 3 3 3 4 3 4 3 3 5 4 4 3 3 4 4 4 5
10 10 10 10 9 9 9 9 8 7 6 5 5 4 4 4 4 4 4 4 4 4 4 4 4 4 4 3 3 4 4 4 4 4 4 4 4 4 4 4 4 4 4
10 10 10 10 10 10 10 9 8 8 7 6 5 5 4 4 4 4 4 4 4 4 4 4 4 4 4 4 4 4 4 4 4 4 4 4 3 4 4 4 4 4 5
10 10 10 10 11 10 10 9 8 8 7 6 6 6 5 5 5 4 4 4 4 4 4 4 4 4 4 4 4 4 4 4 4 4 4 4 4 4 4 4 5 4 4
11 11 11 11 11 10 10 10 9 8 7 7 6 6 5 4 4 4 4 4 5 5 5 5 5 5 4 4 4 4 5 5 4 4 4 4 4 5 4 4 5 4 4
12 13 13 12 12 11 10 10 9 8 8 7 7 6 5 4 4 4 4 5 5 5 5 5 5 4 4 4 5 5 5 5 5 4 4 4 3 5 5 5 5 5 5
14 14 14 13 13 13 12 11 10 9 8 8 7 5 5 4 4 4 4 4 5 5 5 5 5 5 4 2 4 7 6 5 4 4 4 3 4 4 5 6 7 7 7
14 14 14 14 13 13 12 11 10 9 8 8 6 5 5 4 4 4 4 4 5 4 5 5 5 5 3 1 4 6 6 6 5 5 4 3 3 4 5 4 7 7 8
13 14 13 13 13 12 12 11 10 9 9 7 6 5 5 4 4 3 3 4 4 3 4 4 4 4 3 2 5 6 7 6 5 4 5 4 4 3 5 5 5 5 5
12 12 13 13 13 13 12 12 11 10 9 7 6 5 5 4 3 3 3 3 3 3 3 3 3 3 2 2 4 6 5 5 5 4 4 4 4 2 4 6 6 6 5
9 11 12 13 13 13 12 12 11 10 9 7 6 5 4 4 3 3 3 2 2 2 2 1 2 2 3 5 5 6 4 4 4 3 3 0 3 5 5 6 5 6 6
10 11 12 12 13 13 13 13 12 10 8 7 6 5 4 3 3 2 2 2 2 2 2 1 1 1 3 4 5 6 4 4 4 3 2 1 2 4 4 6 5 5 6
10 12 12 12 12 13 14 13 11 9 8 7 6 5 4 3 3 2 1 1 1 1 1 1 0 1 2 4 5 6 5 6 3 3 3 3 4 3 3 3 5 5 5
10 11 12 12 12 13 13 13 11 10 10 9 7 6 5 4 3 2 2 1 0 1 0 0 1 1 2 3 3 3 4 5 3 3 5 6 5 3 1 3 4 4 3
10 11 13 13 13 13 12 11 12 11 11 10 8 7 6 5 4 2 1 1 1 0 0 1 1 1 2 4 4 3 2 1 2 2 2 1 1 2 3 2 3 3 4
10 12 13 14 14 13 13 12 12 12 12 10 9 7 6 5 4 4 3 2 3 3 2 2 1 2 2 5 7 6 5 5 4 4 2 3 3 4 4 4 4 4 4
11 12 14 14 15 15 14 13 13 13 12 10 9 7 6 6 5 5 5 7 6 7 7 6 4 4 5 5 5 6 7 7 6 3 3 3 4 4 4 4 5 5 5
Wind_Direction
202 189 189 184 184 183 184 176 199 81 357 354 345 343 347 340 343 346 347 336 333 332 330 326 329 323 319 314 308 299 286 280 276 264 257 237 232 233 224 226 228 226 227
197 186 187 185 190 185 184 185 178 133 21 11 350 343 339 332 339 330 337 339 337 333 328 331 327 327 320 314 317 312 306 291 275 273 268 242 210 216 220 219 223 227 215
202 190 189 189 189 188 186 183 180 169 146 8 341 328 325 306 328 346 344 342 339 335 332 330 326 325 322 328 322 315 310 306 292 280 279 269 248 227 205 214 218 226 224
199 190 189 190 191 187 182 185 183 189 180 249 318 335 331 342 347 339 338 333 340 342 336 330 328 327 329 328 319 332 312 297 296 290 274 281 300 279 239 208 210 218 225
192 190 190 189 187 180 179 186 187 194 202 251 286 297 317 333 334 331 335 336 347 344 343 339 335 333 328 327 327 318 306 293 289 294 290 281 272 263 261 250 241 231 227
188 188 185 184 181 177 178 184 193 199 207 236 258 282 308 317 325 331 340 338 342 342 350 339 333 333 332 328 324 315 302 295 290 285 277 276 275 270 263 260 256 258 247
188 185 184 185 184 183 186 190 197 207 213 230 250 269 288 303 311 323 337 334 341 346 349 340 333 335 332 325 318 309 310 294 286 284 286 282 280 285 281 276 272 266 266
190 189 189 188 187 188 190 195 203 212 215 230 247 261 276 291 309 310 318 325 333 340 339 336 331 333 329 317 315 307 307 296 284 285 288 283 281 284 281 280 279 269 257
190 191 190 190 189 191 193 198 205 213 217 228 239 252 271 287 297 292 295 312 320 327 331 328 325 330 329 322 315 311 310 297 286 285 280 278 283 282 283 277 268 266 266
190 192 192 192 192 193 193 196 207 215 216 224 234 246 264 277 283 285 294 304 311 320 317 325 329 331 328 322 316 307 316 300 292 283 279 277 278 284 277 274 269 260 264
194 193 192 192 191 190 192 196 204 211 215 222 229 236 248 261 266 267 276 281 289 297 304 314 321 327 327 324 313 306 307 297 293 281 274 270 277 275 269 261 261 259 256
197 193 190 187 188 192 195 199 203 207 211 218 225 235 247 250 257 260 263 269 275 284 291 299 304 316 318 315 310 306 303 301 300 295 284 276 270 273 275 268 259 256 256
196 192 190 190 190 192 196 200 204 207 206 210 221 232 239 246 254 261 264 267 270 274 277 282 290 298 302 306 303 296 296 297 295 294 285 282 278 276 277 273 267 257 253
199 196 194 195 194 194 197 201 203 202 203 206 219 232 241 244 252 258 265 267 270 274 280 281 283 286 290 291 294 291 291 294 294 289 284 281 277 278 282 276 273 264 257
204 201 199 198 194 195 198 199 200 199 199 205 217 228 234 237 246 254 257 263 267 272 277 281 279 278 281 293 303 297 289 290 292 287 281 280 291 310 297 290 285 272 261
209 204 201 198 197 196 196 194 195 197 198 206 214 216 227 232 242 254 260 267 269 273 276 276 276 277 275 317 301 291 287 286 285 293 294 278 248 250 252 268 283 284 272
209 203 201 198 198 196 193 191 194 191 195 202 207 210 218 226 240 249 257 263 267 272 277 276 278 279 283 285 283 277 281 280 286 291 294 297 290 276 275 249 244 254 251
209 202 199 195 194 191 188 186 185 188 194 199 202 204 213 224 234 246 259 266 275 276 277 284 287 290 307 325 295 285 263 269 274 277 285 288 292 295 303 291 282 284 277
205 198 194 188 186 184 182 182 183 188 193 197 201 199 205 214 225 237 252 265 274 277 280 289 299 299 320 25 323 295 263 260 264 269 280 291 292 7 309 286 284 286 285
192 184 182 182 181 179 178 183 186 188 191 191 193 190 195 205 220 236 254 257 256 265 275 291 307 320 336 42 6 315 276 273 273 268 268 271 312 343 313 284 286 288 297
179 174 175 179 179 174 177 186 188 189 183 176 174 175 180 192 205 220 234 247 253 260 261 268 305 359 10 43 29 354 316 305 298 294 296 4 36 330 318 296 295 312 309
175 175 176 176 174 174 180 186 185 175 164 161 164 168 170 172 173 182 211 244 251 242 244 246 37 28 47 35 35 17 360 338 317 320 330 11 26 343 331 322 352 336 305
181 179 178 172 172 177 184 184 173 162 160 160 162 163 160 155 160 167 173 183 218 264 293 1 33 41 33 52 54 29 17 357 338 360 25 14 0 325 326 36 2 331 316
189 181 178 177 177 177 181 178 164 163 164 165 164 165 164 157 147 134 133 114 64 41 36 39 37 40 43 25 11 4 12 21 351 10 56 110 31 1 17 17 12 4 358
196 189 188 186 180 174 174 169 165 168 170 168 166 166 161 155 144 125 83 78 62 40 18 33 34 21 43 41 24 9 9 3 4 346 6 17 19 21 19 14 13 4 357
202 197 194 189 182 176 172 169 169 172 173 172 170 167 162 158 155 143 119 69 74 74 62 43 28 67 59 57 45 37 31 21 354 340 28 24 19 13 7 1 357 357 356
Height
1516 1517 1518 1519 1521 1522 1522 1522 1522 1521 1520 1519 1518 1517 1516 1514 1512 1510 1508 1506 1505 1503 1502 1501 1500 1498 1498 1497 1497 1497 1497 1497 1497 1498 1498 1499 1499 1500 1501 1503 1504 1506 1508
1513 1514 1516 1517 1519 1520 1521 1521 1521 1520 1519 1517 1517 1515 1514 1513 1511 1509 1508 1506 1504 1502 1501 1500 1499 1498 1496 1496 1496 1495 1495 1495 1496 1497 1497 1497 1498 1497 1499 1500 1501 1504 1505
1509 1512 1514 1515 1517 1518 1519 1519 1519 1519 1518 1517 1516 1515 1514 1513 1512 1510 1507 1505 1503 1502 1500 1499 1498 1497 1496 1495 1495 1494 1494 1494 1495 1495 1496 1496 1495 1496 1497 1498 1499 1500 1502
1507 1509 1511 1513 1515 1516 1517 1518 1518 1518 1517 1516 1516 1515 1514 1513 1511 1509 1507 1505 1503 1501 1500 1499 1497 1497 1496 1495 1494 1494 1493 1493 1494 1494 1494 1495 1495 1496 1496 1496 1497 1498 1499
1504 1507 1509 1511 1513 1514 1515 1516 1516 1516 1516 1515 1514 1514 1514 1512 1511 1509 1507 1505 1503 1501 1499 1498 1497 1496 1495 1495 1494 1493 1493 1493 1493 1493 1493 1493 1493 1494 1495 1495 1496 1497 1497
1501 1504 1507 1509 1511 1512 1513 1514 1515 1515 1514 1514 1514 1513 1512 1511 1510 1509 1507 1505 1504 1501 1500 1497 1496 1495 1495 1494 1493 1492 1492 1492 1491 1491 1492 1492 1492 1493 1493 1493 1493 1494 1496
1499 1502 1504 1506 1508 1510 1511 1512 1513 1513 1513 1513 1513 1512 1511 1510 1509 1508 1507 1505 1504 1502 1500 1498 1496 1495 1494 1493 1492 1491 1491 1491 1490 1490 1491 1491 1491 1491 1491 1492 1492 1493 1493
1496 1499 1502 1504 1506 1507 1509 1510 1511 1512 1512 1512 1512 1511 1510 1510 1509 1507 1506 1505 1503 1501 1499 1497 1496 1494 1493 1492 1491 1491 1490 1490 1490 1490 1489 1489 1489 1490 1490 1490 1491 1491 1491
1494 1497 1499 1501 1503 1505 1507 1508 1509 1510 1510 1511 1510 1510 1510 1508 1507 1506 1505 1504 1502 1500 1499 1497 1496 1494 1493 1491 1491 1490 1490 1489 1489 1488 1488 1488 1488 1488 1488 1488 1489 1490 1490
1492 1494 1496 1499 1501 1503 1505 1506 1507 1508 1509 1509 1509 1509 1508 1507 1506 1505 1504 1503 1502 1500 1498 1497 1496 1494 1493 1491 1490 1489 1488 1488 1487 1486 1486 1486 1486 1486 1486 1486 1486 1487 1488
1489 1492 1494 1496 1498 1500 1502 1504 1505 1506 1507 1507 1507 1507 1507 1506 1505 1504 1503 1501 1500 1499 1498 1497 1496 1494 1493 1491 1490 1489 1488 1487 1486 1486 1485 1485 1484 1484 1484 1484 1484 1485 1485
1487 1489 1491 1493 1495 1498 1500 1501 1503 1504 1505 1505 1506 1505 1505 1504 1504 1503 1502 1501 1500 1499 1497 1496 1495 1494 1492 1491 1489 1488 1487 1486 1485 1484 1484 1483 1483 1482 1482 1482 1482 1482 1482
1484 1486 1488 1490 1493 1495 1497 1499 1500 1501 1502 1503 1504 1504 1504 1503 1503 1502 1501 1500 1499 1498 1497 1496 1494 1493 1491 1490 1488 1487 1486 1485 1484 1483 1482 1482 1481 1481 1480 1480 1480 1480 1480
1481 1483 1485 1487 1489 1492 1494 1496 1498 1499 1500 1501 1501 1502 1502 1502 1501 1500 1499 1498 1497 1496 1496 1495 1493 1492 1490 1489 1488 1486 1485 1484 1483 1482 1481 1480 1479 1479 1479 1478 1478 1477 1477
1477 1479 1481 1484 1486 1488 1491 1493 1495 1496 1497 1498 1499 1500 1500 1499 1499 1498 1497 1496 1495 1494 1494 1493 1491 1490 1489 1488 1487 1485 1484 1483 1482 1481 1480 1478 1477 1477 1476 1476 1476 1475 1475
1472 1474 1477 1480 1482 1485 1487 1489 1491 1493 1495 1496 1497 1497 1497 1497 1497 1496 1495 1494 1493 1492 1491 1490 1489 1488 1487 1486 1485 1483 1483 1482 1481 1480 1479 1477 1476 1475 1474 1474 1473 1473 1473
1467 1469 1472 1475 1478 1481 1484 1486 1488 1490 1492 1493 1494 1495 1495 1495 1494 1493 1493 1492 1491 1490 1489 1488 1487 1486 1485 1484 1483 1482 1481 1481 1480 1478 1477 1476 1475 1474 1473 1472 1471 1471 1470
1462 1465 1468 1471 1474 1477 1480 1483 1485 1487 1489 1490 1491 1492 1492 1492 1491 1491 1490 1489 1488 1487 1486 1485 1484 1483 1482 1481 1480 1480 1479 1479 1478 1477 1476 1475 1474 1472 1471 1471 1470 1469 1468
1457 1460 1464 1467 1470 1473 1476 1479 1482 1484 1486 1487 1488 1489 1489 1489 1489 1488 1487 1486 1485 1485 1484 1483 1482 1481 1480 1479 1478 1477 1477 1477 1476 1475 1474 1473 1472 1470 1469 1468 1467 1466 1465
1453 1456 1460 1463 1467 1470 1473 1476 1479 1481 1482 1484 1485 1486 1486 1486 1486 1485 1484 1484 1483 1482 1481 1480 1479 1478 1477 1476 1476 1475 1475 1475 1474 1473 1472 1470 1469 1468 1467 1466 1465 1464 1463
1449 1452 1456 1459 1463 1466 1469 1472 1475 1477 1479 1481 1482 1482 1483 1483 1482 1482 1482 1481 1480 1479 1479 1478 1477 1476 1475 1474 1473 1473 1473 1472 1472 1471 1470 1468 1467 1466 1465 1464 1463 1462 1460
1446 1449 1452 1455 1459 1462 1466 1469 1472 1474 1476 1477 1478 1479 1479 1480 1480 1479 1479 1478 1478 1477 1477 1476 1476 1475 1473 1472 1471 1471 1470 1470 1469 1468 1467 1466 1464 1464 1462 1461 1460 1459 1458
1444 1446 1449 1452 1455 1458 1462 1465 1467 1470 1472 1474 1475 1476 1476 1477 1477 1477 1476 1476 1476 1476 1476 1475 1474 1473 1472 1471 1470 1469 1468 1467 1467 1466 1465 1463 1462 1461 1460 1459 1458 1457 1456
1440 1442 1445 1448 1451 1454 1457 1461 1463 1466 1468 1470 1471 1473 1473 1474 1474 1474 1474 1474 1473 1473 1473 1473 1472 1472 1471 1470 1469 1468 1467 1466 1465 1464 1463 1461 1460 1459 1458 1457 1456 1455 1454
1436 1438 1441 1443 1447 1450 1453 1456 1459 1462 1464 1466 1468 1469 1470 1471 1471 1471 1471 1471 1471 1470 1471 1471 1470 1470 1469 1468 1467 1466 1465 1464 1463 1462 1462 1461 1459 1458 1457 1455 1454 1453 1451
1432 1433 1436 1438 1442 1445 1448 1451 1454 1457 1460 1463 1464 1465 1467 1467 1468 1468 1468 1468 1468 1468 1468 1468 1468 1467 1467 1466 1465 1465 1464 1463 1462 1461 1461 1459 1458 1457 1455 1454 1452 1451 1449